#timestamp,LO_Frequency,Hit,StdDev 
1501459215.1,286046999.0,N,1.8
1501459216.0,286046999.0,N,1.7
1501459235.8,286046998.6,N,1.6
1501459255.7,286047000.7,N,1.6
1501459275.5,286046998.2,N,1.6
1501459295.3,286047001.2,N,1.6
1501459315.2,286046998.1,N,1.6
1501459335.0,286047001.2,N,1.6
1501459335.9,286047001.2,N,1.6
1501459355.8,286046998.6,N,1.6
1501459375.6,286046998.1,N,1.6
1501459395.4,286046998.2,N,1.6
1501459415.3,286046998.3,N,1.5
1501459435.1,286046998.5,N,1.5
1501459455.8,286046998.6,N,1.5
1501459475.7,286046998.1,N,1.5
1501459495.5,286046998.7,N,1.4
1501459515.4,286047000.6,N,1.4
1501459535.2,286047000.6,N,1.4
1501459555.0,286047002.4,N,1.5
1501459555.9,286047002.4,N,1.6
1501459575.8,286047002.7,N,1.7
1501459595.6,286047002.5,N,1.5
1501459615.5,286047002.6,N,1.6
1501459635.3,286047001.5,N,1.6
1501459655.1,286047002.0,N,1.6
1501459675.9,286047002.0,N,1.6
1501459695.7,286047002.6,N,1.7
1501459715.5,286047002.6,N,1.7
1501459735.4,286047002.6,N,1.8
1501459755.2,286047002.7,N,1.8
1501459775.1,286046999.7,N,1.8
1501459776.0,286046999.7,N,1.8
1501459795.8,286047000.3,N,1.8
1501459815.7,286047002.4,N,1.7
1501459835.5,286047001.4,N,1.7
1501459855.3,286047002.0,N,1.7
1501459875.2,286047001.5,N,1.7
1501459895.0,286047001.5,N,1.7
1501459895.9,286047001.5,N,1.6
1501459915.8,286047002.2,N,1.6
1501459935.6,286047001.6,N,1.5
1501459955.4,286047004.3,N,1.5
1501459975.3,286047003.8,N,1.4
1501459995.1,286047003.7,N,1.4
1501460015.9,286047003.2,N,1.2
1501460035.7,286047003.7,N,1.1
1501460055.5,286047003.1,N,1.1
1501460075.4,286047003.6,P,0.7
1501460095.2,286046999.7,N,1.6
1501460115.1,286047002.6,N,1.4
1501460116.0,286047002.6,N,1.3
1501460135.8,286047002.5,N,1.2
1501460155.6,286047002.0,N,1.1
1501460175.5,286047002.3,N,1.0
1501460225.3,286047000.1,E,nan
1501460235.3,286047000.0,N,0.0
1501460255.1,286047001.0,P,0.5
1501460275.8,286047001.9,P,0.8
1501460295.7,286047001.6,N,0.7
1501460315.5,286047001.5,N,0.7
1501460335.4,286047002.5,P,0.7
1501460355.2,286047002.8,P,0.7
1501460375.0,286046999.7,N,1.2
1501460376.0,286046999.7,N,1.3
1501460395.8,286047000.9,N,1.2
1501460415.6,286046999.9,N,1.2
1501460435.5,286047000.1,N,1.2
1501460455.3,286047000.3,N,1.1
1501460475.1,286047000.0,N,1.1
1501460495.9,286047002.8,N,1.2
1501460515.7,286046999.7,N,1.2
1501460535.6,286047000.4,N,1.1
1501460555.4,286047000.4,N,1.1
1501460575.2,286047000.2,N,1.1
1501460595.1,286047000.0,N,1.1
1501460596.0,286047000.0,N,1.0
1501460615.8,286047000.2,N,1.0
1501460635.7,286046999.9,N,1.0
1501460655.5,286047002.6,N,1.1
1501460675.3,286047002.5,N,1.1
1501460695.2,286047001.9,N,1.1
1501460715.0,286047002.6,N,1.2
1501460715.9,286047002.6,N,1.2
1501460735.8,286047002.2,N,1.2
1501460755.6,286047001.6,N,1.2
1501460775.4,286046999.8,N,1.2
1501460795.3,286047002.5,N,1.2
1501460815.1,286046999.9,N,1.2
1501460835.9,286047002.3,N,1.2
1501460855.7,286047002.8,N,1.2
1501460875.5,286047000.2,N,1.2
1501460895.4,286047002.1,N,1.2
1501460915.2,286047003.1,N,1.2
1501460935.1,286047003.9,P,1.4
1501460936.0,286047003.9,N,1.3
1501460955.8,286047001.9,N,1.2
1501460975.6,286047002.2,N,1.1
1501460995.5,286046999.8,N,1.5
1501461015.3,286047002.5,N,1.4
1501461035.2,286047002.4,N,1.3
1501461055.9,286047002.2,N,1.2
1501461075.7,286047000.1,N,1.3
1501461095.6,286046999.9,N,1.4
1501461115.4,286047002.7,N,1.3
1501461135.2,286046999.8,N,1.4
1501461155.1,286046999.7,N,1.5
1501461156.0,286046999.7,N,1.5
1501461175.8,286047002.5,N,1.5
1501461195.7,286047000.2,N,1.4
1501461215.5,286047002.7,N,1.4
1501461235.3,286046999.7,N,1.5
1501461255.2,286047002.5,N,1.4
1501461275.0,286047002.0,N,1.4
1501461275.9,286047002.0,N,1.4
1501461295.8,286047004.1,N,1.4
1501461315.6,286047004.0,N,1.5
1501461335.4,286047001.5,N,1.5
1501461355.3,286047004.1,N,1.5
1501461375.1,286047001.8,N,1.5
1501461395.9,286047001.9,N,1.5
1501461415.7,286047004.0,N,1.5
1501461435.5,286047001.9,N,1.5
1501461455.4,286047002.6,N,1.5
1501461475.2,286047001.9,N,1.4
1501461495.0,286047003.8,N,1.4
1501461496.0,286047003.8,N,1.4
1501461515.8,286047004.4,P,1.2
1501461535.6,286047000.3,N,1.7
1501461555.5,286047000.5,N,1.6
1501461575.3,286046999.8,N,1.7
1501461595.2,286047000.1,N,1.6
1501461615.9,286047001.0,N,1.5
1501461635.7,286047000.5,N,1.4
1501461655.6,286047001.1,N,1.3
1501461675.4,286047002.8,N,1.4
1501461695.3,286046999.8,N,1.4
1501461715.1,286047000.0,N,1.3
1501461716.0,286047000.0,N,1.3
1501461735.8,286046999.9,N,1.3
1501461755.7,286047002.7,N,1.3
1501461775.5,286047002.4,N,1.3
1501461795.4,286047002.8,N,1.4
1501461815.2,286047002.4,N,1.3
1501461835.0,286046999.8,N,1.3
1501461835.9,286046999.8,N,1.3
1501461855.8,286047000.2,N,1.3
1501461875.6,286047002.6,N,1.3
1501461895.4,286047002.8,N,1.4
1501461915.3,286046999.7,N,1.4
1501461935.1,286047000.2,N,1.3
1501461955.9,286047000.3,N,1.3
1501461975.7,286047000.9,N,1.3
1501461995.5,286046999.9,N,1.3
1501462015.4,286047002.6,N,1.3
1501462035.2,286047002.1,N,1.3
1501462055.1,286047002.1,N,1.3
1501462056.0,286047002.1,N,1.2
1501462075.8,286047001.9,N,1.2
1501462095.6,286047001.5,N,1.2
1501462115.5,286047002.7,N,1.2
1501462135.3,286047002.4,N,1.2
1501462155.2,286047002.4,N,1.2
1501462175.9,286047002.8,N,1.2
1501462195.7,286047001.1,N,1.2
1501462215.6,286047001.1,N,1.2
1501462235.4,286047000.5,N,1.1
1501462255.2,286047001.2,N,1.1
1501462275.1,286046998.6,N,1.2
1501462276.0,286046998.6,N,1.3
1501462295.8,286047000.8,N,1.3
1501462315.7,286047001.2,N,1.2
1501462335.5,286047000.6,N,1.2
1501462355.3,286047000.3,N,1.2
1501462375.2,286047000.7,N,1.2
1501462395.0,286046998.1,N,1.3
1501462395.9,286046998.1,N,1.4
1501462415.8,286047000.8,N,1.3
1501462435.6,286047000.0,N,1.3
1501462455.4,286046999.9,N,1.3
1501462475.3,286047002.4,N,1.3
1501462495.1,286047004.3,P,1.7
1501462515.9,286047002.5,N,1.4
1501462535.7,286047000.1,N,1.6
1501462555.5,286047000.5,N,1.5
1501462575.4,286046999.8,N,1.6
1501462595.2,286047000.6,N,1.5
1501462615.1,286047000.5,N,1.4
1501462616.0,286047000.5,N,1.3
1501462635.8,286047001.0,N,1.3
1501462655.6,286046998.6,N,1.4
1501462675.5,286047001.1,N,1.3
1501462695.3,286047000.9,N,1.3
1501462715.1,286047000.9,N,1.2
1501462735.9,286047001.1,N,1.2
1501462755.7,286047000.4,N,1.2
1501462775.6,286047000.6,N,1.1
1501462795.4,286047000.6,N,1.1
